Regional Weather Roundup
Issued by NWS Cleveland, OH

Home | Current Version | Previous Version | Graphics & Text | Print | Product List | Glossary On
Versions: 1 2 3 4 5 6 7 8 9 10 11 12 13 14 15 16 17 18 19 20 21 22 23 24 25 26 27 28 29 30 31 32 33 34 35 36 37 38 39 40 41 42 43 44 45 46 47 48 49 50
000
ASUS41 KCLE 251610
RWRCLE
OHIO REGIONAL WEATHER ROUNDUP
NATIONAL WEATHER SERVICE CLEVELAND, OH
1200 PM EDT THU AUG 25 2016

NOTE: "FAIR" INDICATES FEW OR NO CLOUDS BELOW 12,000 FEET WITH NO
SIGNIFICANT WEATHER AND/OR OBSTRUCTIONS TO VISIBILITY.

OHZ001>008-015>018-024>027-034-035-043-044-251700-
   NORTHWEST OHIO

CITY           SKY/WX    TMP DP  RH WIND       PRES   REMARKS
DEFIANCE       MOSUNNY   82  72  71 VRB6      30.03R
FINDLAY        SUNNY     84  71  65 SW12      30.03R
TOLEDO EXPRESS PTSUNNY   80  74  81 SW8       30.01R
TOLEDO EXEC    MOSUNNY   82  75  79 SW10      30.01S
LIMA           MOSUNNY   83  74  74 S8        30.04F
$$

OHZ009>014-019>023-028>033-038-089-251700-
   NORTHEAST OHIO

CITY           SKY/WX    TMP DP  RH WIND       PRES   REMARKS
CLE-HOPKINS    PTSUNNY   82  72  71 SW7       30.06S
CLE-LAKEFRONT  MOSUNNY   83  72  69 S6        30.02S
CUY CO. ARPT   PTSUNNY   81  73  78 W9        30.05R
LORAIN-ELYRIA  MOSUNNY   80  72  76 SW8       30.04F
ASHTABULA      PTSUNNY   79  74  84 SW9       30.04R
AKRON-CANTON   PTSUNNY   81  71  71 W8        30.07S
WOOSTER        PTSUNNY   80  72  76 SW6       30.07F
MANSFIELD      MOSUNNY   83  71  67 SW12      30.07F
YOUNGSTOWN     CLOUDY    79  70  74 SW10      30.07R
$$

OHZ042-051>053-060>062-070>072-077>081-251700-
  SOUTHWEST OHIO

CITY           SKY/WX    TMP DP  RH WIND       PRES   REMARKS
CINC-COVINGTON CLOUDY    83  76  79 W7        30.10S HX  91
CINC-LUNKEN    CLOUDY    83  76  79 SW6       30.09R HX  91
HAMILTON       CLOUDY    84  74  71 W12G17    30.09R HX  91
DAYTON         PTSUNNY   83  75  77 SW13      30.09R HX  90
WRIGHT-PAT AFB PTSUNNY   83  76  80 SW15      30.07R HX  91
DAYTON GENERAL CLOUDY    82  74  76 SW10      30.08S
WILMINGTON     CLOUDY    82  75  79 SW13      30.09R
$$

OHZ036-037-039>041-045>050-054>059-063>069-073>076-082>088-251700-
  CENTRAL AND SOUTHEAST OHIO

CITY           SKY/WX    TMP DP  RH WIND       PRES   REMARKS
COLUMBUS       CLOUDY    82  75  79 S6        30.07S
OSU AIRPORT    PTSUNNY   84  77  79 SW9       30.07R HX  94
BOLTON FIELD   PTSUNNY   82  77  83 SW7       30.08S HX  91
RICKENBACK AFB CLOUDY    83  76  78 SW8       30.07S HX  91
NEWARK         MOSUNNY   83  75  77 SW7       30.07S HX  90
MARION         MOSUNNY   83  73  72 SW9       30.07R
LANCASTER      MOSUNNY   84  76  76 S7        30.08F HX  93
ZANESVILLE     PTSUNNY   83  75  77 SW7       30.08F HX  90
NEW PHILLY     MOSUNNY   84  70  62 VRB6      30.08S
$$



USA.gov is the U.S. government's official web portal to all federal, state and local government web resources and services.